FW1759 Weather Reports


Display with metric or nautical units.
time (UTC)temp
F
wind
direction
speed
MPH
gust
MPH
rain 1hr
in
rain 24hr
in
rain mn
in
humidity
%
barometer
mb
20201020151638 82 191 0.0 2.0 0.00 0.00 0.00 69 1014.2
20201020151114 81 175 0.0 2.0 0.00 0.00 0.00 70 1014.2
20201020150556 81 175 0.0 2.0 0.00 0.00 0.00 73 1014.4
20201020150211 81 175 1.0 3.0 0.00 0.00 0.00 74 1014.4
20201020145549 81 175 1.0 3.0 0.00 0.00 0.00 74 1014.4
20201020145101 81 175 1.0 4.0 0.00 0.00 0.00 75 1014.4
20201020144621 82 129 2.0 5.0 0.00 0.00 0.00 73 1014.4
20201020144054 82 42 0.0 4.0 0.00 0.00 0.00 73 1014.5
20201020143552 82 6 0.0 2.0 0.00 0.00 0.00 74 1014.5
20201020143136 81 6 1.0 4.0 0.00 0.00 0.00 74 1014.5
20201020142606 81 7 2.0 4.0 0.00 0.00 0.00 73 1014.6
20201020142051 81 6 3.0 9.0 0.00 0.00 0.00 75 1014.7
20201020141634 81 333 4.0 10.0 0.00 0.00 0.00 74 1014.7
20201020141047 81 64 2.0 7.0 0.00 0.00 0.00 73 1014.8
20201020140545 81 49 3.0 7.0 0.00 0.00 0.00 73 1014.7
20201020140138 81 21 2.0 6.0 0.00 0.00 0.00 75 1014.8
20201020135604 81 359 2.0 6.0 0.00 0.00 0.00 75 1014.8
20201020135048 81 333 3.0 6.0 0.00 0.00 0.00 76 1014.9
20201020134722 81 351 4.0 6.0 0.00 0.00 0.00 75 1014.9
20201020134044 81 330 5.0 7.0 0.00 0.00 0.00 75 1015.0
20201020133539 80 2 3.0 6.0 0.00 0.00 0.00 78 1015.0
20201020133054 80 12 3.0 7.0 0.00 0.00 0.00 77 1014.9
20201020132537 80 15 4.0 7.0 0.00 0.00 0.00 77 1015.0
20201020132036 80 360 2.0 7.0 0.00 0.00 0.00 78 1015.0
20201020131629 80 2 3.0 7.0 0.00 0.00 0.00 77 1014.9
20201020131054 80 6 3.0 8.0 0.00 0.00 0.00 78 1014.9
20201020130552 80 10 3.0 7.0 0.00 0.00 0.00 78 1015.0
20201020130109 80 9 2.0 10.0 0.00 0.00 0.00 79 1014.9
20201020125538 80 6 6.0 10.0 0.00 0.00 0.00 78 1015.0
20201020125035 79 11 4.0 7.0 0.00 0.00 0.00 78 1014.9
20201020124551 79 349 3.0 6.0 0.00 0.00 0.00 80 1014.8
20201020124026 78 37 3.0 6.0 0.00 0.00 0.00 81 1014.9
20201020123542 78 16 1.0 4.0 0.00 0.00 0.00 84 1014.8
20201020123048 77 27 2.0 5.0 0.00 0.00 0.00 83 1014.9
20201020122523 77 48 2.0 5.0 0.00 0.00 0.00 84 1014.9
20201020122031 76 59 3.0 6.0 0.00 0.00 0.00 85 1014.9
20201020121558 76 22 3.0 6.0 0.00 0.00 0.00 87 1014.7
20201020121027 75 29 2.0 7.0 0.00 0.00 0.00 90 1014.8
20201020120525 75 62 2.0 6.0 0.00 0.00 0.00 91 1014.7
20201020120029 75 64 3.0 6.0 0.00 0.00 0.00 92 1014.6
20201020115514 74 52 3.0 5.0 0.00 0.01 0.00 92 1014.6
20201020115021 74 58 2.0 6.0 0.00 0.01 0.00 93 1014.7
20201020114541 74 27 3.0 7.0 0.00 0.01 0.00 94 1014.7
20201020114010 73 58 3.0 7.0 0.00 0.01 0.00 95 1014.6
20201020113510 73 81 3.0 7.0 0.00 0.01 0.00 95 1014.4
20201020113021 73 57 4.0 8.0 0.00 0.01 0.00 95 1014.3
20201020112511 73 49 4.0 8.0 0.00 0.01 0.00 95 1014.1
20201020112008 73 62 3.0 5.0 0.00 0.01 0.00 96 1013.9
20201020111518 73 65 2.0 4.0 0.00 0.01 0.00 96 1013.8
20201020111107 72 64 2.0 4.0 0.00 0.01 0.00 96 1013.7
20201020110607 72 62 2.0 4.0 0.00 0.01 0.00 97 1013.7
20201020110224 72 83 1.0 3.0 0.00 0.01 0.00 97 1013.7
20201020105607 72 69 0.0 2.0 0.00 0.01 0.00 98 1013.7
20201020105059 72 69 1.0 2.0 0.00 0.01 0.00 98 1013.6
20201020104812 72 69 0.0 1.0 0.00 0.01 0.00 98 1013.6
20201020104054 71 69 0.0 1.0 0.00 0.01 0.00 98 1013.6
20201020103606 71 69 0.0 0.0 0.00 0.01 0.00 98 1013.4
20201020103203 71 69 0.0 0.0 0.00 0.01 0.00 98 1013.4
20201020102552 71 69 0.0 1.0 0.00 0.01 0.00 98 1013.4
20201020102048 71 69 0.0 2.0 0.00 0.01 0.00 98 1013.4
20201020101721 71 69 1.0 2.0 0.00 0.01 0.00 98 1013.3
20201020101043 71 69 0.0 0.0 0.00 0.01 0.00 98 1013.0
20201020100542 71 69 0.0 0.0 0.00 0.01 0.00 98 1013.0
20201020100137 71 69 0.0 1.0 0.00 0.01 0.00 98 1013.0
20201020095542 71 69 0.0 2.0 0.00 0.03 0.00 98 1012.9
20201020095040 71 68 1.0 2.0 0.00 0.03 0.00 98 1012.9
20201020094558 71 35 0.0 0.0 0.00 0.03 0.00 98 1012.8
20201020094110 71 35 0.0 0.0 0.00 0.03 0.00 98 1012.7
20201020093602 71 35 0.0 0.0 0.00 0.03 0.00 98 1012.7
20201020093131 71 35 0.0 0.0 0.00 0.03 0.00 98 1012.7
20201020092600 71 35 0.0 0.0 0.00 0.03 0.00 98 1012.6
20201020092028 70 35 0.0 0.0 0.00 0.03 0.00 98 1012.4
20201020091539 70 35 0.0 0.0 0.00 0.03 0.00 98 1012.4
20201020091024 70 35 0.0 0.0 0.00 0.03 0.00 98 1012.2
20201020090524 70 35 0.0 0.0 0.00 0.03 0.00 98 1012.1
20201020090035 70 35 0.0 0.0 0.00 0.03 0.00 98 1012.1
20201020085526 70 35 0.0 0.0 0.00 0.08 0.00 98 1012.0
20201020085022 70 35 0.0 0.0 0.00 0.08 0.00 97 1011.9
20201020084529 70 35 0.0 0.0 0.00 0.08 0.00 97 1011.9
20201020084023 70 35 0.0 0.0 0.00 0.08 0.00 97 1011.8
20201020083557 70 35 0.0 0.0 0.00 0.08 0.00 97 1011.8
20201020083129 70 35 0.0 0.0 0.00 0.08 0.00 97 1011.8
20201020082554 70 35 0.0 0.0 0.00 0.08 0.00 97 1011.7
20201020082052 70 35 0.0 0.0 0.00 0.08 0.00 97 1011.7
20201020081652 70 35 0.0 0.0 0.00 0.08 0.00 97 1011.7
20201020081051 71 35 0.0 2.0 0.00 0.08 0.00 97 1011.7
20201020080550 71 35 0.0 3.0 0.00 0.08 0.00 97 1011.7
20201020080130 71 35 1.0 3.0 0.00 0.08 0.00 97 1011.7
20201020075606 71 35 0.0 2.0 0.00 0.11 0.00 97 1011.6
20201020075104 71 35 0.0 3.0 0.00 0.11 0.00 97 1011.6
20201020074703 71 35 0.0 3.0 0.00 0.11 0.00 97 1011.6
20201020074049 71 35 1.0 3.0 0.00 0.11 0.00 97 1011.5
20201020073615 71 39 1.0 3.0 0.00 0.11 0.00 97 1011.6
20201020073102 71 39 1.0 3.0 0.00 0.11 0.00 97 1011.4
20201020072058 71 39 0.0 2.0 0.00 0.11 0.00 97 1011.5
20201020071611 71 39 0.0 2.0 0.00 0.11 0.00 97 1011.4
20201020071058 71 39 0.0 2.0 0.00 0.11 0.00 97 1011.5
20201020070550 71 39 1.0 2.0 0.00 0.11 0.00 97 1011.3
20201020070250 71 39 0.0 2.0 0.00 0.11 0.00 97 1011.4
20201020065546 71 39 0.0 3.0 0.00 0.18 0.00 97 1011.4
20201020065048 71 39 1.0 3.0 0.00 0.18 0.00 97 1011.4
20201020064602 71 39 0.0 3.0 0.00 0.18 0.00 97 1011.3
20201020064046 71 39 0.0 3.0 0.00 0.18 0.00 97 1011.5
20201020063552 71 39 0.0 2.0 0.00 0.18 0.00 97 1011.5
20201020063143 71 39 0.0 2.0 0.00 0.18 0.00 97 1011.5
20201020062554 71 39 0.0 1.0 0.00 0.18 0.00 97 1011.5
20201020062047 71 39 0.0 2.0 0.00 0.18 0.00 97 1011.6
20201020061836 71 39 0.0 2.0 0.00 0.18 0.00 97 1011.5
20201020061101 71 39 0.0 2.0 0.00 0.18 0.00 97 1011.5
20201020060546 71 39 0.0 3.0 0.00 0.18 0.00 97 1011.5
20201020060124 71 39 0.0 3.0 0.00 0.18 0.00 97 1011.5
20201020055548 71 39 1.0 3.0 0.00 0.31 0.00 97 1011.4
20201020055045 71 38 0.0 2.0 0.00 0.31 0.00 97 1011.2
20201020054816 71 38 0.0 3.0 0.00 0.31 0.00 97 1011.3
20201020054046 71 38 0.0 3.0 0.00 0.31 0.00 96 1011.2
20201020053551 71 39 1.0 3.0 0.00 0.31 0.00 97 1011.3
20201020053104 71 39 0.0 2.0 0.00 0.31 0.00 96 1011.3
20201020052621 71 39 0.0 2.0 0.00 0.31 0.00 96 1011.3
20201020052044 71 39 0.0 2.0 0.00 0.31 0.00 96 1011.4
20201020051545 72 39 0.0 0.0 0.00 0.31 0.00 96 1011.5
20201020051047 72 39 0.0 0.0 0.00 0.31 0.00 96 1011.6
20201020050533 72 39 0.0 0.0 0.00 0.31 0.00 96 1011.7
20201020050124 72 39 0.0 0.0 0.00 0.31 0.00 96 1011.7
20201020045543 72 39 0.0 0.0 0.00 0.56 0.00 96 1011.8
20201020045029 72 39 0.0 2.0 0.00 0.56 0.00 95 1011.9
20201020044643 72 39 0.0 2.0 0.00 0.56 0.00 95 1011.9
20201020044035 72 39 1.0 2.0 0.00 0.56 0.00 95 1011.9
20201020043526 72 39 0.0 2.0 0.00 0.56 0.00 95 1011.9
20201020043114 72 39 0.0 0.0 0.00 0.56 0.00 95 1012.0
20201020042532 72 39 0.0 1.0 0.00 0.56 0.00 95 1012.0
20201020042022 72 39 0.0 2.0 0.00 0.56 0.00 95 1012.1
20201020041524 72 39 0.0 2.0 0.00 0.56 0.00 95 1012.1
20201020041032 72 39 0.0 2.0 0.00 0.56 0.00 95 1012.2
20201020040535 72 39 1.0 2.0 0.00 0.56 0.00 95 1012.1
20201020040044 72 39 0.0 3.0 0.00 0.56 0.00 95 1012.2
20201020035540 72 39 1.0 3.0 0.00 0.87 0.00 94 1012.2
20201020035030 73 39 1.0 3.0 0.00 0.87 0.00 95 1012.4
20201020034538 73 39 0.0 4.0 0.00 0.87 0.00 95 1012.5
20201020034050 73 40 1.0 4.0 0.00 0.87 0.00 95 1012.5
20201020033530 73 46 0.0 5.0 0.00 0.87 0.00 95 1012.6
20201020033116 73 58 1.0 5.0 0.00 0.87 0.00 95 1012.6
20201020032526 73 18 1.0 3.0 0.00 0.87 0.00 95 1012.7
20201020032027 73 18 0.0 3.0 0.00 0.87 0.00 94 1012.7
20201020031549 73 16 0.0 1.0 0.00 0.87 0.00 94 1012.9
20201020031027 73 16 0.0 2.0 0.00 0.87 0.00 94 1012.9
20201020030532 73 14 0.0 3.0 0.00 0.87 0.00 94 1013.1
20201020030057 73 14 0.0 3.0 0.00 0.87 0.00 94 1013.2
20201020025523 73 14 0.0 3.0 0.00 0.87 0.00 94 1013.2
20201020025037 73 14 0.0 3.0 0.00 0.87 0.00 94 1013.4
20201020024549 73 14 0.0 3.0 0.00 0.87 0.00 94 1013.6
20201020024026 73 14 1.0 3.0 0.00 0.87 0.00 94 1013.6
20201020023521 73 14 1.0 3.0 0.00 0.87 0.00 94 1013.7
20201020023044 73 14 0.0 4.0 0.00 0.87 0.00 93 1013.7
20201020022529 73 17 1.0 4.0 0.00 0.87 0.00 93 1013.7
20201020022020 73 18 1.0 6.0 0.00 0.87 0.00 93 1013.7
20201020021519 73 25 2.0 6.0 0.00 0.87 0.00 93 1013.6
20201020021016 74 10 2.0 6.0 0.00 0.87 0.00 93 1013.7
20201020020527 74 12 2.0 7.0 0.00 0.87 0.00 93 1013.6
20201020020026 74 31 3.0 7.0 0.00 0.87 0.00 93 1013.5
20201020015537 74 13 2.0 6.0 0.00 0.87 0.00 93 1013.4
20201020015033 74 24 2.0 5.0 0.00 0.87 0.00 93 1013.4
20201020014526 74 1 1.0 5.0 0.00 0.87 0.00 93 1013.3
20201020014022 74 35 1.0 5.0 0.00 0.87 0.00 93 1013.2
20201020013520 74 13 1.0 5.0 0.00 0.87 0.00 93 1013.2
20201020013122 74 21 2.0 6.0 0.00 0.87 0.00 92 1013.2
20201020004038 74 11 1.0 6.0 0.00 0.87 0.00 90 1012.8
20201020003520 74 32 1.0 3.0 0.00 0.87 0.00 90 1012.7
20201020003027 74 54 0.0 3.0 0.00 0.87 0.00 90 1012.5
20201020002521 74 54 1.0 3.0 0.00 0.87 0.00 89 1012.5
20201020002011 74 54 1.0 3.0 0.00 0.87 0.00 89 1012.4
20201020001523 75 54 1.0 3.0 0.00 0.87 0.00 89 1012.4
20201020001025 75 54 1.0 3.0 0.00 0.87 0.00 89 1012.3
20201020000511 75 59 1.0 3.0 0.00 0.87 0.00 88 1012.2
20201020000036 75 99 0.0 2.0 0.00 0.87 0.00 88 1012.2
20201019235512 75 104 1.0 2.0 0.00 0.87 0.00 88 1012.1
20201019235005 75 105 1.0 2.0 0.00 0.87 0.00 88 1011.9
20201019234512 75 109 1.0 3.0 0.00 0.87 0.00 88 1011.7
20201019234050 75 110 1.0 2.0 0.00 0.87 0.00 89 1011.6
20201019233147 75 110 0.0 2.0 0.00 0.87 0.00 89 1011.5
20201019232533 75 110 0.0 2.0 0.00 0.87 0.00 89 1011.5
20201019232036 75 110 0.0 2.0 0.00 0.87 0.00 89 1011.5
20201019231603 75 110 0.0 2.0 0.00 0.87 0.00 89 1011.4
20201019231033 75 110 0.0 3.0 0.00 0.87 0.00 89 1011.3
20201019230528 75 110 1.0 3.0 0.00 0.87 0.00 89 1011.1
20201019230109 75 110 1.0 3.0 0.00 0.87 0.00 88 1011.0
20201019225525 75 110 1.0 3.0 0.00 0.87 0.00 88 1011.0
20201019225032 75 133 1.0 3.0 0.00 0.87 0.00 90 1010.9
20201019224539 75 134 0.0 2.0 0.00 0.87 0.00 90 1010.8
20201019224104 75 134 0.0 2.0 0.00 0.87 0.00 90 1010.6
20201019223537 75 134 0.0 2.0 0.00 0.87 0.00 90 1010.6
20201019223032 75 134 1.0 2.0 0.00 0.87 0.00 90 1010.4
20201019222536 76 134 1.0 4.0 0.00 0.87 0.00 89 1010.3
20201019222038 76 134 0.0 5.0 0.00 0.87 0.00 88 1010.3
20201019221533 76 145 3.0 5.0 0.00 0.87 0.00 88 1010.1
20201019220555 76 89 1.0 4.0 0.00 0.87 0.00 89 1010.2
20201019220522 76 89 1.0 4.0 0.00 0.87 0.00 89 1010.2
20201019204508 79 185 0.0 2.0 0.00 0.87 0.00 85 1009.0
20201019204117 79 185 1.0 2.0 0.00 0.87 0.00 84 1009.0
20201019204004 79 185 1.0 2.0 0.00 0.87 0.00 84 1008.9
20201019203601 79 185 1.0 2.0 0.00 0.87 0.00 83 1008.9
20201019203512 79 185 1.0 2.0 0.00 0.87 0.00 84 1008.9
20201019203008 79 191 1.0 3.0 0.00 0.87 0.00 83 1008.9
20201019202100 79 191 1.0 2.0 0.00 0.87 0.00 82 1008.8
20201019201629 79 191 1.0 2.0 0.00 0.87 0.00 82 1008.9
20201019201100 79 191 1.0 3.0 0.00 0.87 0.00 80 1008.9
20201019200600 79 191 1.0 3.0 0.00 0.87 0.00 81 1008.9
20201019200139 79 185 1.0 4.0 0.00 0.87 0.00 82 1008.9
20201019195608 80 185 2.0 4.0 0.00 0.87 0.00 80 1008.8
20201019195059 80 180 2.0 3.0 0.00 0.87 0.00 80 1008.8
20201019194653 80 167 1.0 3.0 0.00 0.87 0.00 80 1008.6
20201019194056 80 240 1.0 3.0 0.00 0.87 0.00 78 1008.6
20201019193604 80 240 1.0 3.0 0.00 0.87 0.00 79 1008.7
20201019193207 80 246 1.0 3.0 0.00 0.87 0.00 80 1008.7
20201019192555 79 246 2.0 4.0 0.00 0.87 0.00 79 1008.7
20201019192108 79 241 2.0 4.0 0.00 0.87 0.00 77 1008.7
20201019191646 79 204 1.0 3.0 0.00 0.87 0.00 77 1008.8
20201019191059 79 204 2.0 3.0 0.00 0.87 0.00 78 1008.8
20201019190611 80 175 1.0 3.0 0.00 0.87 0.00 81 1008.8
20201019190203 80 175 1.0 2.0 0.00 0.87 0.00 78 1009.0
20201019185556 80 175 0.0 2.0 0.00 0.87 0.00 75 1009.1
20201019185057 79 346 0.0 0.0 0.00 0.87 0.00 76 1009.2
20201019184631 79 346 0.0 2.0 0.00 0.87 0.00 76 1009.4
20201019184049 79 343 0.0 2.0 0.00 0.87 0.00 78 1009.6
20201019183554 79 343 1.0 2.0 0.00 0.87 0.00 77 1009.6
20201019182626 80 343 0.0 1.0 0.00 0.87 0.00 77 1009.7
20201019182051 80 343 0.0 3.0 0.00 0.87 0.00 76 1009.7
20201019181607 80 343 1.0 3.0 0.00 0.87 0.00 76 1009.7
20201019181048 80 343 1.0 4.0 0.00 0.87 0.00 75 1009.8
20201019180543 80 343 0.0 5.0 0.00 0.87 0.00 73 1009.9
20201019180117 80 343 2.0 5.0 0.00 0.87 0.00 74 1009.9
20201019175542 80 344 1.0 5.0 0.00 0.87 0.00 73 1009.9
20201019175042 80 345 2.0 5.0 0.00 0.87 0.00 73 1010.0
20201019174553 81 326 0.0 6.0 0.00 0.87 0.00 74 1010.0
20201019173549 81 333 3.0 6.0 0.00 0.87 0.00 73 1010.1
20201019173108 81 334 3.0 7.0 0.00 0.87 0.00 73 1010.1
20201019173018 81 344 4.0 7.0 0.00 0.87 0.00 73 1010.1
20201019172550 80 316 4.0 7.0 0.00 0.87 0.00 73 1010.1
20201019172040 80 345 3.0 7.0 0.00 0.87 0.00 75 1010.2
20201019171040 80 347 3.0 6.0 0.00 0.87 0.00 75 1010.3
20201019170547 80 354 2.0 6.0 0.00 0.87 0.00 75 1010.3
20201019170158 80 355 2.0 4.0 0.00 0.87 0.00 75 1010.2
20201019165541 80 6 2.0 6.0 0.00 0.87 0.00 74 1010.2
20201019165038 81 12 2.0 6.0 0.00 0.87 0.00 74 1010.2
20201019164709 81 351 3.0 6.0 0.00 0.87 0.00 74 1010.1
20201019164124 81 347 3.0 5.0 0.00 0.87 0.00 74 1010.2
20201019163535 81 343 3.0 9.0 0.00 0.87 0.00 73 1010.3
20201019163106 81 21 3.0 11.0 0.00 0.87 0.00 74 1010.3
20201019162542 81 5 5.0 12.0 0.00 0.87 0.00 73 1010.4
20201019162033 81 343 5.0 10.0 0.00 0.87 0.00 72 1010.5
20201019161616 81 4 4.0 9.0 0.00 0.87 0.00 73 1010.4
20201019161031 81 345 4.0 8.0 0.00 0.87 0.00 73 1010.5
20201019160531 80 27 4.0 8.0 0.00 0.87 0.00 72 1010.6
20201019155543 80 32 4.0 8.0 0.00 0.87 0.00 74 1010.6
20201019155027 79 32 4.0 10.0 0.00 0.87 0.00 77 1010.6
20201019154555 79 23 5.0 10.0 0.00 0.87 0.00 75 1010.7
20201019154035 79 20 4.0 8.0 0.00 0.87 0.00 76 1010.7
20201019153536 79 39 4.0 8.0 0.00 0.87 0.00 78 1010.8
20201019153055 78 10 2.0 7.0 0.00 0.87 0.00 79 1010.9
20201019152533 78 12 4.0 7.0 0.00 0.87 0.00 79 1010.9
20201019152020 78 7 3.0 9.0 0.00 0.87 0.00 80 1011.0